sat.trackr.live / text

‹ back to catalog

STARLINK-35180

NORAD 65462 · 2025-195E

PAYLOAD ACTIVE UNKNOWN

§ Identity

Operator
Country
US
Launch date
2025-09-03
Launch site
AFETR
Launch vehicle
Mass (kg)
RCS (m²)

Purposes: comms

External: N2YO · Heavens-Above · Gunter

§ Orbital elements

Epoch: 2026-09-20T07:29:42.632736Z

Period
93.85 min
Inclination
53.1616°
Eccentricity
0.0000861
Mean motion
15.34383621 rev/d
Perigee alt
462.2 km
Apogee alt
463.3 km
Semi-major
6,840.9 km
B*
1.3304e-4
RAAN
70.4666°
Arg perigee
100.2648°
Mean anomaly
259.8452°
Rev number
5,984

§ Raw data

STARLINK-351801 65462U 25195E   26263.31229899  .00004119  00000+0  13304-3 0  99952 65462  53.1616  70.4666 0000861 100.2648 259.8452 15.34383621 59849

JSON: /api/v1/satellites/65462 · /tle

For live sub-satellite position, see the globe view (requires WebGL).

§ Visibility from observer

Set your observer location to see the next 7 days of passes ≥ 10°. The values pass through the URL so the page stays shareable.

No JS? Fill the form by hand. The geolocation button needs JavaScript.